UAL235 KPWM-KBOS

Flight info

Callsign UAL235
Flight time 0h 25m
Altitude 14000
Route ENE PEASE STEVO LWRNC
Aircraft B38M/M-SDE1FGHILORVWXY/HB1

Departure

Time 2026-05-04 21:03
Airport Portland International Jetport (KPWM)

Arrival

Time 2026-05-04 21:29
Airport Boston Logan International Airport (KBOS)
Time Latitude Longitude Altitude Speed Heading
2026-05-04 20:41 43.64673 -70.30790 60 ft 0 kts 281°
2026-05-04 20:55 43.64670 -70.30774 56 ft 2 kts 279°
2026-05-04 20:55 43.64668 -70.30751 61 ft 2 kts 276°
2026-05-04 20:55 43.64667 -70.30729 62 ft 2 kts 266°
2026-05-04 20:55 43.64671 -70.30707 59 ft 2 kts 220°
2026-05-04 20:56 43.64683 -70.30700 55 ft 1 kts 182°
2026-05-04 20:56 43.64685 -70.30699 56 ft 0 kts 181°
2026-05-04 20:57 43.64678 -70.30700 54 ft 2 kts 181°
2026-05-04 20:57 43.64672 -70.30700 60 ft 0 kts 181°
2026-05-04 20:58 43.64662 -70.30700 60 ft 3 kts 181°
2026-05-04 20:58 43.64627 -70.30699 52 ft 7 kts 176°
2026-05-04 20:58 43.64575 -70.30666 54 ft 9 kts 130°
2026-05-04 20:59 43.64560 -70.30574 54 ft 10 kts 95°
2026-05-04 20:59 43.64553 -70.30462 57 ft 13 kts 95°
2026-05-04 20:59 43.64543 -70.30312 56 ft 18 kts 95°
2026-05-04 20:59 43.64537 -70.30230 57 ft 0 kts 95°
2026-05-04 21:00 43.64537 -70.30224 57 ft 2 kts 95°
2026-05-04 21:00 43.64535 -70.30197 57 ft 4 kts 95°
2026-05-04 21:00 43.64532 -70.30148 57 ft 6 kts 95°
2026-05-04 21:01 43.64526 -70.30064 56 ft 11 kts 95°
2026-05-04 21:01 43.64506 -70.29940 50 ft 11 kts 129°
2026-05-04 21:01 43.64447 -70.29920 49 ft 7 kts 199°
2026-05-04 21:01 43.64413 -70.29966 46 ft 5 kts 247°
2026-05-04 21:02 43.64412 -70.29981 49 ft 0 kts 265°
2026-05-04 21:02 43.64423 -70.30177 53 ft 59 kts 275°
2026-05-04 21:02 43.64489 -70.31137 90 ft 135 kts 276°
2026-05-04 21:02 43.64618 -70.32657 392 ft 181 kts 277°
2026-05-04 21:03 43.64748 -70.34575 620 ft 222 kts 275°
2026-05-04 21:03 43.64913 -70.36860 957 ft 248 kts 275°
2026-05-04 21:03 43.65093 -70.39225 1259 ft 238 kts 275°
2026-05-04 21:03 43.65275 -70.41334 1518 ft 213 kts 275°
2026-05-04 21:04 43.65397 -70.43391 1633 ft 215 kts 264°
2026-05-04 21:04 43.64826 -70.45325 1601 ft 223 kts 242°
2026-05-04 21:04 43.63781 -70.46954 1581 ft 233 kts 223°
2026-05-04 21:04 43.62341 -70.48059 1900 ft 243 kts 209°
2026-05-04 21:05 43.60786 -70.49033 2846 ft 246 kts 210°
2026-05-04 21:05 43.59235 -70.50075 3761 ft 249 kts 211°
2026-05-04 21:05 43.58203 -70.50786 4382 ft 251 kts 212°
2026-05-04 21:05 43.56629 -70.51863 5308 ft 254 kts 212°
2026-05-04 21:06 43.55035 -70.52940 6232 ft 257 kts 213°
2026-05-04 21:06 43.53422 -70.54028 7041 ft 260 kts 212°
2026-05-04 21:06 43.51791 -70.55130 7841 ft 263 kts 212°
2026-05-04 21:06 43.50136 -70.56250 8611 ft 267 kts 212°
2026-05-04 21:07 43.48459 -70.57383 9342 ft 271 kts 212°
2026-05-04 21:07 43.46747 -70.58537 10071 ft 276 kts 213°
2026-05-04 21:07 43.44991 -70.59725 10559 ft 288 kts 212°
2026-05-04 21:07 43.43027 -70.60635 10902 ft 315 kts 193°
2026-05-04 21:08 43.40747 -70.60482 11302 ft 342 kts 171°
2026-05-04 21:08 43.38431 -70.59484 11875 ft 354 kts 166°
2026-05-04 21:08 43.36099 -70.58316 12503 ft 360 kts 165°
2026-05-04 21:08 43.33725 -70.57150 13167 ft 364 kts 166°
2026-05-04 21:09 43.31308 -70.56034 13687 ft 370 kts 166°
2026-05-04 21:09 43.28864 -70.54909 13773 ft 370 kts 166°
2026-05-04 21:09 43.26435 -70.53759 13773 ft 368 kts 165°
2026-05-04 21:09 43.24011 -70.52609 13774 ft 369 kts 166°
2026-05-04 21:10 43.21585 -70.51472 13776 ft 369 kts 166°
2026-05-04 21:10 43.19156 -70.50339 13775 ft 369 kts 166°
2026-05-04 21:10 43.16728 -70.49202 13771 ft 369 kts 166°
2026-05-04 21:10 43.14292 -70.48060 13776 ft 369 kts 166°
2026-05-04 21:11 43.11862 -70.46923 13778 ft 369 kts 166°
2026-05-04 21:11 43.09463 -70.45803 13780 ft 369 kts 166°
2026-05-04 21:11 43.07002 -70.44654 13779 ft 369 kts 166°
2026-05-04 21:11 43.04564 -70.43517 13786 ft 369 kts 166°
2026-05-04 21:12 43.02154 -70.42296 13789 ft 372 kts 158°
2026-05-04 21:12 42.99930 -70.40431 13796 ft 376 kts 150°
2026-05-04 21:12 42.97764 -70.38425 13803 ft 377 kts 149°
2026-05-04 21:12 42.95592 -70.36428 13808 ft 376 kts 150°
2026-05-04 21:13 42.93414 -70.34454 13810 ft 376 kts 150°
2026-05-04 21:13 42.91259 -70.32502 13821 ft 377 kts 150°
2026-05-04 21:13 42.89079 -70.30517 13823 ft 377 kts 150°
2026-05-04 21:13 42.86912 -70.28541 13811 ft 373 kts 150°
2026-05-04 21:14 42.84748 -70.26577 13814 ft 372 kts 150°
2026-05-04 21:14 42.82597 -70.24630 13815 ft 372 kts 150°
2026-05-04 21:14 42.80445 -70.22680 13815 ft 372 kts 150°
2026-05-04 21:14 42.78290 -70.20726 13820 ft 372 kts 150°
2026-05-04 21:15 42.76135 -70.18775 13827 ft 372 kts 150°
2026-05-04 21:15 42.73980 -70.16828 13829 ft 372 kts 150°
2026-05-04 21:15 42.71829 -70.14886 13829 ft 372 kts 150°
2026-05-04 21:15 42.69675 -70.12941 13836 ft 371 kts 150°
2026-05-04 21:16 42.67459 -70.11175 13833 ft 365 kts 164°
2026-05-04 21:16 42.65009 -70.10722 13853 ft 352 kts 191°
2026-05-04 21:16 42.62752 -70.11780 13818 ft 339 kts 218°
2026-05-04 21:16 42.61197 -70.14060 13821 ft 328 kts 245°
2026-05-04 21:17 42.60530 -70.16975 13816 ft 323 kts 261°
2026-05-04 21:17 42.60188 -70.19988 13814 ft 323 kts 263°
2026-05-04 21:17 42.59807 -70.22994 13802 ft 324 kts 260°
2026-05-04 21:17 42.59331 -70.25984 13805 ft 324 kts 259°
2026-05-04 21:18 42.58918 -70.28961 13761 ft 316 kts 264°
2026-05-04 21:18 42.58756 -70.31877 13640 ft 303 kts 268°
2026-05-04 21:18 42.58661 -70.34683 13379 ft 294 kts 267°
2026-05-04 21:18 42.58468 -70.37422 13040 ft 289 kts 264°
2026-05-04 21:19 42.58207 -70.40103 12669 ft 285 kts 264°
2026-05-04 21:19 42.57969 -70.42757 12287 ft 282 kts 265°
2026-05-04 21:19 42.57758 -70.45389 11815 ft 281 kts 265°
2026-05-04 21:19 42.57544 -70.48032 11302 ft 282 kts 265°
2026-05-04 21:20 42.57321 -70.50685 10805 ft 283 kts 265°
2026-05-04 21:20 42.57131 -70.53336 10309 ft 282 kts 266°
2026-05-04 21:20 42.56892 -70.55913 9557 ft 273 kts 264°
2026-05-04 21:20 42.56601 -70.58421 8716 ft 257 kts 263°
2026-05-04 21:21 42.56323 -70.60769 7909 ft 247 kts 262°
2026-05-04 21:21 42.56071 -70.63031 7128 ft 239 kts 262°
2026-05-04 21:21 42.55846 -70.65239 6334 ft 234 kts 262°
2026-05-04 21:21 42.55638 -70.67531 5386 ft 233 kts 262°
2026-05-04 21:22 42.55465 -70.69598 4550 ft 232 kts 262°
2026-05-04 21:22 42.55297 -70.71772 3657 ft 231 kts 263°
2026-05-04 21:22 42.55134 -70.73917 3095 ft 227 kts 263°
2026-05-04 21:22 42.54974 -70.76027 2982 ft 219 kts 263°
2026-05-04 21:23 42.54813 -70.78076 2980 ft 219 kts 262°
2026-05-04 21:23 42.54655 -70.80162 2976 ft 214 kts 263°
2026-05-04 21:23 42.54507 -70.82079 2995 ft 206 kts 263°
2026-05-04 21:23 42.54355 -70.84026 2984 ft 208 kts 263°
2026-05-04 21:24 42.54206 -70.85955 2980 ft 200 kts 263°
2026-05-04 21:24 42.53974 -70.87795 2976 ft 199 kts 247°
2026-05-04 21:24 42.53284 -70.89407 2974 ft 198 kts 237°
2026-05-04 21:24 42.52502 -70.90890 2974 ft 188 kts 236°
2026-05-04 21:25 42.51541 -70.92100 2981 ft 190 kts 217°
2026-05-04 21:25 42.50368 -70.92951 2974 ft 193 kts 210°
2026-05-04 21:25 42.49159 -70.93729 2966 ft 184 kts 217°
2026-05-04 21:25 42.48116 -70.94640 2731 ft 174 kts 215°
2026-05-04 21:26 42.47055 -70.95358 2445 ft 170 kts 208°
2026-05-04 21:26 42.45966 -70.95926 2135 ft 166 kts 206°
2026-05-04 21:26 42.44882 -70.96452 1855 ft 159 kts 205°
2026-05-04 21:26 42.43895 -70.96921 1537 ft 146 kts 207°
2026-05-04 21:27 42.42973 -70.97364 1251 ft 132 kts 206°
2026-05-04 21:27 42.42105 -70.97785 1214 ft 139 kts 207°
2026-05-04 21:27 42.41189 -70.98234 1052 ft 139 kts 205°
2026-05-04 21:27 42.40266 -70.98681 859 ft 142 kts 205°
2026-05-04 21:28 42.39361 -70.99121 628 ft 137 kts 202°
2026-05-04 21:28 42.38459 -70.99555 365 ft 139 kts 205°
2026-05-04 21:28 42.37536 -70.99993 151 ft 132 kts 203°
2026-05-04 21:28 42.36758 -71.00386 27 ft 95 kts 200°
2026-05-04 21:29 42.36328 -71.00599 29 ft 44 kts 199°
2026-05-04 21:29 42.36157 -71.00729 27 ft 20 kts 245°
2026-05-04 21:29 42.36163 -71.00844 27 ft 9 kts 292°
2026-05-04 21:29 42.36182 -71.00907 27 ft 7 kts 292°
2026-05-04 21:30 42.36201 -71.00966 27 ft 7 kts 292°
2026-05-04 21:30 42.36221 -71.01027 27 ft 8 kts 295°
2026-05-04 21:30 42.36245 -71.01099 27 ft 9 kts 294°
2026-05-04 21:30 42.36273 -71.01179 29 ft 10 kts 298°
2026-05-04 21:31 42.36367 -71.01388 24 ft 17 kts 295°
2026-05-04 21:31 42.36418 -71.01524 25 ft 9 kts 315°
2026-05-04 21:31 42.36437 -71.01529 25 ft 1 kts 19°
2026-05-04 21:32 42.36446 -71.01524 26 ft 2 kts 20°
2026-05-04 21:32 42.36463 -71.01516 24 ft 3 kts 18°
2026-05-04 21:32 42.36474 -71.01511 26 ft 0 kts 18°